EW9423 Weather Reports


time (UTC)temp
C
wind
direction
speed
KPH
gust
KPH
rain 1hr
cm
rain 24hr
cm
rain mn
cm
humidity
%
barometer
mb
20260507105016 15 208 3.2 8.0 0.00 0.00 0.00 33 1018.3
20260507104017 15 317 1.6 6.4 0.00 0.00 0.00 30 1018.3
20260507103016 15 116 1.6 4.8 0.00 0.00 0.00 29 1018.2
20260507102036 15 116 0.0 6.4 0.00 0.00 0.00 30 1018.1
20260507101016 15 172 1.6 4.8 0.00 0.00 0.00 30 1018.0
20260507100016 15 182 3.2 8.0 0.00 0.00 0.00 31 1017.9
20260507095016 14 169 3.2 8.0 0.00 0.00 0.00 33 1017.9
20260507094016 13 275 1.6 4.8 0.00 0.00 0.00 27 1017.8
20260507093016 14 322 1.6 6.4 0.00 0.00 0.00 28 1017.8
20260507092016 15 221 3.2 8.0 0.00 0.00 0.00 27 1017.8
20260507091016 15 142 1.6 8.0 0.00 0.00 0.00 31 1017.8
20260507090016 14 151 1.6 8.0 0.00 0.00 0.00 35 1017.8
20260507085017 13 172 1.6 8.0 0.00 0.00 0.00 36 1017.7
20260507084016 13 173 3.2 6.4 0.00 0.00 0.00 36 1017.7
20260507083016 13 136 1.6 4.8 0.00 0.00 0.00 38 1017.8
20260507082016 13 30 0.0 3.2 0.00 0.00 0.00 36 1017.7
20260507081057 12 336 0.0 4.8 0.00 0.00 0.00 35 1017.6
20260507080016 11 322 0.0 4.8 0.00 0.00 0.00 39 1017.5
20260507075036 12 332 1.6 6.4 0.00 0.00 0.00 40 1017.3
20260507074016 12 323 1.6 6.4 0.00 0.00 0.00 42 1017.3
20260507073016 11 317 1.6 4.8 0.00 0.00 0.00 47 1017.3
20260507072016 11 300 1.6 4.8 0.00 0.00 0.00 45 1017.3
20260507071016 11 292 0.0 6.4 0.00 0.00 0.00 45 1017.2
20260507070016 11 319 0.0 3.2 0.00 0.00 0.00 44 1017.2
20260507065016 11 348 0.0 3.2 0.00 0.00 0.00 49 1017.1
20260507064016 10 320 1.6 4.8 0.00 0.00 0.00 46 1017.2
20260507063016 10 320 0.0 6.4 0.00 0.00 0.00 58 1017.0
20260507062016 10 320 0.0 3.2 0.00 0.00 0.00 62 1017.0
20260507061016 10 328 0.0 4.8 0.00 0.00 0.00 63 1016.9
20260507060016 8 0 0.0 0.0 0.00 0.00 0.00 75 1016.9
20260507055016 6 242 0.0 3.2 0.00 0.00 0.00 80 1016.8
20260507054016 5 340 0.0 1.6 0.00 0.00 0.00 86 1016.6
20260507053016 3 0 0.0 1.6 0.00 0.00 0.00 89 1016.5
20260507052016 2 0 0.0 0.0 0.00 0.00 0.00 90 1016.3
20260507051036 1 0 0.0 0.0 0.00 0.00 0.00 90 1016.2
20260507050056 1 0 0.0 0.0 0.00 0.00 0.00 91 1016.1
20260507045016 0 0 0.0 0.0 0.00 0.00 0.00 90 1016.2
20260507044016 0 0 0.0 0.0 0.00 0.00 0.00 90 1016.1
20260507043036 0 0 0.0 1.6 0.00 0.00 0.00 89 1016.0
20260507042016 0 0 0.0 1.6 0.00 0.00 0.00 89 1016.0
20260507041015 0 0 0.0 0.0 0.00 0.00 0.00 88 1015.9
20260507040016 0 0 0.0 0.0 0.00 0.00 0.00 88 1015.8
20260507035036 0 0 0.0 0.0 0.00 0.00 0.00 87 1015.7
20260507034016 0 0 0.0 0.0 0.00 0.00 0.00 87 1015.7
20260507033018 0 0 0.0 0.0 0.00 0.00 0.00 86 1015.6
20260507032018 0 0 0.0 0.0 0.00 0.00 0.00 86 1015.6
20260507031018 0 0 0.0 0.0 0.00 0.00 0.00 86 1015.6
20260507030018 0 0 0.0 0.0 0.00 0.00 0.00 86 1015.6
20260507025056 0 0 0.0 0.0 0.00 0.00 0.00 85 1015.6
20260507024017 1 0 0.0 0.0 0.00 0.00 0.00 85 1015.5
20260507023018 1 0 0.0 0.0 0.00 0.00 0.00 85 1015.5
20260507022038 1 0 0.0 0.0 0.00 0.00 0.00 85 1015.5
20260507021018 1 0 0.0 0.0 0.00 0.00 0.00 85 1015.4
20260507020037 1 0 0.0 0.0 0.00 0.00 0.00 85 1015.4
20260507015018 1 0 0.0 0.0 0.00 0.00 0.00 84 1015.4
20260507014038 1 0 0.0 0.0 0.00 0.00 0.00 84 1015.3
20260507013018 1 0 0.0 0.0 0.00 0.00 0.00 84 1015.3
20260507012018 1 0 0.0 0.0 0.00 0.00 0.00 84 1015.3
20260507011018 1 0 0.0 0.0 0.00 0.00 0.00 85 1015.2
20260507010018 1 0 0.0 0.0 0.00 0.00 0.00 85 1015.2
20260507005018 1 0 0.0 0.0 0.00 0.00 0.00 85 1015.2
20260507004016 1 0 0.0 0.0 0.00 0.00 0.00 85 1015.2
20260507003015 1 0 0.0 0.0 0.00 0.00 0.00 84 1015.2
20260507002015 1 0 0.0 3.2 0.00 0.00 0.00 84 1015.1
20260507001015 1 0 0.0 0.0 0.00 0.00 0.00 83 1015.1
20260507000015 1 0 0.0 0.0 0.00 0.00 0.00 81 1015.1
20260506235015 1 0 0.0 0.0 0.00 0.00 0.00 80 1015.0
20260506234015 1 0 0.0 0.0 0.00 0.00 0.00 80 1015.0
20260506233015 2 0 0.0 0.0 0.00 0.00 0.00 79 1015.1
20260506232015 2 0 0.0 0.0 0.00 0.00 0.00 79 1015.1
20260506231035 2 0 0.0 0.0 0.00 0.00 0.00 78 1015.2
20260506230015 2 0 0.0 0.0 0.00 0.00 0.00 76 1015.1
20260506225015 3 0 0.0 0.0 0.00 0.00 0.00 75 1015.0
20260506224015 3 0 0.0 0.0 0.00 0.00 0.00 74 1015.0
20260506223015 3 0 0.0 0.0 0.00 0.00 0.00 73 1015.0
20260506222015 3 0 0.0 0.0 0.00 0.00 0.00 72 1014.9
20260506221015 4 0 0.0 0.0 0.00 0.00 0.00 71 1014.9
20260506220015 5 0 0.0 0.0 0.00 0.00 0.00 71 1014.9
20260506215015 5 0 0.0 3.2 0.00 0.00 0.00 70 1014.8
20260506214015 5 324 0.0 3.2 0.00 0.00 0.00 68 1014.8
20260506213018 5 324 0.0 4.8 0.00 0.00 0.00 68 1014.7
20260506212037 5 0 0.0 0.0 0.00 0.00 0.00 67 1014.6
20260506211018 5 0 0.0 0.0 0.00 0.00 0.00 67 1014.5
20260506210018 5 0 0.0 3.2 0.00 0.00 0.00 66 1014.5
20260506205018 5 324 0.0 3.2 0.00 0.00 0.00 66 1014.4
20260506204018 6 0 0.0 1.6 0.00 0.00 0.00 65 1014.4
20260506203037 6 324 0.0 3.2 0.00 0.00 0.00 65 1014.4
20260506202017 6 324 0.0 3.2 0.00 0.00 0.00 64 1014.3
20260506201018 6 324 0.0 4.8 0.00 0.00 0.00 63 1014.3
20260506200017 6 324 0.0 3.2 0.00 0.00 0.00 62 1014.3
20260506195037 6 323 1.6 4.8 0.00 0.00 0.00 61 1014.2
20260506194037 7 324 1.6 4.8 0.00 0.00 0.00 60 1014.2
20260506193017 7 318 1.6 6.4 0.00 0.00 0.00 59 1014.1
20260506192017 7 322 1.6 4.8 0.00 0.00 0.00 58 1014.1
20260506191057 7 311 1.6 6.4 0.00 0.00 0.00 57 1014.0
20260506190018 8 324 3.2 6.4 0.00 0.00 0.00 56 1013.9
20260506185017 8 324 6.4 12.9 0.00 0.00 0.00 53 1013.9
20260506184017 9 322 3.2 9.7 0.00 0.00 0.00 51 1013.8
20260506183016 10 325 4.8 14.5 0.00 0.00 0.00 48 1013.7
20260506182017 10 324 4.8 12.9 0.00 0.00 0.00 46 1013.6
20260506181017 10 324 4.8 9.7 0.00 0.00 0.00 46 1013.5
20260506180017 10 326 4.8 14.5 0.00 0.00 0.00 46 1013.4
20260506175037 10 314 4.8 16.1 0.00 0.00 0.00 50 1013.4
20260506174017 11 324 6.4 14.5 0.00 0.00 0.00 50 1013.4
20260506173016 11 325 6.4 16.1 0.00 0.00 0.00 50 1013.3
20260506172017 11 329 4.8 16.1 0.00 0.00 0.00 52 1013.2
20260506171017 11 324 8.0 19.3 0.00 0.00 0.00 51 1013.2
20260506170017 11 327 6.4 19.3 0.00 0.00 0.00 51 1013.0
20260506165017 11 322 9.7 19.3 0.00 0.00 0.00 50 1013.0
20260506164017 12 328 6.4 17.7 0.00 0.00 0.00 50 1013.0
20260506163017 12 325 8.0 20.9 0.00 0.00 0.00 50 1013.0
20260506162017 12 330 8.0 17.7 0.00 0.00 0.00 49 1013.0
20260506161037 12 329 8.0 19.3 0.00 0.00 0.00 49 1012.9
20260506160017 12 325 9.7 17.7 0.00 0.00 0.00 49 1012.9
20260506155017 13 322 8.0 19.3 0.00 0.00 0.00 49 1012.8
20260506154016 13 325 9.7 20.9 0.00 0.00 0.00 48 1012.8
20260506153016 13 325 8.0 20.9 0.00 0.00 0.00 47 1012.8
20260506152017 14 324 8.0 19.3 0.00 0.00 0.00 46 1012.7
20260506151017 14 329 8.0 19.3 0.00 0.00 0.00 46 1012.7
20260506150037 15 330 3.2 16.1 0.00 0.00 0.00 45 1012.7
20260506145037 15 325 6.4 14.5 0.00 0.00 0.00 43 1012.7
20260506144036 15 327 6.4 16.1 0.00 0.00 0.00 43 1012.6
20260506143037 15 325 3.2 14.5 0.00 0.00 0.00 43 1012.7
20260506142016 14 318 4.8 14.5 0.00 0.00 0.00 45 1012.7
20260506141017 15 325 8.0 17.7 0.00 0.00 0.00 46 1012.6
20260506140017 14 327 1.6 12.9 0.00 0.00 0.00 46 1012.6
20260506135017 15 317 6.4 16.1 0.00 0.00 0.00 46 1012.7
20260506134017 15 328 4.8 16.1 0.00 0.00 0.00 46 1012.7
20260506133017 15 311 6.4 17.7 0.00 0.00 0.00 47 1012.7
20260506132016 15 319 6.4 17.7 0.00 0.00 0.00 46 1012.6
20260506131017 15 339 4.8 14.5 0.00 0.00 0.00 44 1012.6
20260506130016 14 327 3.2 16.1 0.00 0.00 0.00 45 1012.7
20260506125017 14 270 4.8 19.3 0.00 0.00 0.00 46 1012.7
20260506124017 14 331 3.2 17.7 0.00 0.00 0.00 43 1012.8
20260506123016 15 271 3.2 16.1 0.00 0.00 0.00 41 1012.8
20260506122016 15 311 3.2 11.3 0.00 0.00 0.00 44 1012.7
20260506121016 15 320 3.2 12.9 0.00 0.00 0.00 45 1012.8
20260506120016 15 325 4.8 16.1 0.00 0.00 0.00 42 1012.9
20260506115036 15 317 6.4 14.5 0.00 0.00 0.00 42 1012.9
20260506114016 15 290 4.8 11.3 0.00 0.00 0.00 40 1013.0
20260506113017 15 65 1.6 6.4 0.00 0.00 0.00 41 1013.0
20260506112016 14 112 1.6 12.9 0.00 0.00 0.00 41 1013.0
20260506111016 14 316 3.2 9.7 0.00 0.00 0.00 40 1013.0
20260506110016 13 47 1.6 6.4 0.00 0.00 0.00 42 1013.1